Location: Downe
(51.3167°N, 0.0500°E)
Time: 08:42:56
(UTC+00:00)

Cosmos 2100 Rocket - Pass Details

Date: 17 November 2019
Orbit: 955 x 1001 km, 82.9° (Epoch: 06 December)

Event Time Altitude Azimuth Distance (km) Brightness Sun altitude
Rises 04:40:44 0° 176° (S) 3,650 7.1 -24.6°
Reaches altitude 10° 04:43:15 10° 174° (S) 2,701 6.4 -24.2°
Maximum altitude 04:49:20 64° 94° (E) 1,061 4.4 -23.2°
Drops below altitude 10° 04:55:25 10° 15° (NNE) 2,700 6.4 -22.3°
Sets 04:57:56 0° 12° (NNE) 3,649 7.1 -21.9°
